Location: Saint-Palais-sur-Mer
(45.6429°N, 1.0859°W)
Time: 08:24:24
(UTC+02:00)

TIGRISAT - Pass Details

Date: 28 April 2024
Orbit: 594 x 672 km, 97.7° (Epoch: 20 May)

Event Time Altitude Azimuth Distance (km) Brightness Sun altitude
Rises 05:20:45 0° 146° (SE) 2,907 ? -15.2°
Reaches altitude 10° 05:23:03 10° 138° (SE) 1,991 ? -14.8°
Maximum altitude 05:27:04 38° 70° (ENE) 938 ? -14.3°
Drops below altitude 10° 05:31:01 10° 2° (N) 1,965 ? -13.8°
Sets 05:33:17 0° 355° (N) 2,864 ? -13.4°
